Regional Weather Roundup
Issued by NWS New Orleans/Baton Rouge, LA

Home | Current Version | Previous Version | Graphics & Text | Print | Product List | Glossary On
Versions: 1 2 3 4 5 6 7 8 9 10 11 12 13 14 15 16 17 18 19 20 21 22 23 24 25 26 27 28 29 30 31 32 33 34 35 36 37 38 39 40 41 42 43 44 45 46 47 48 49 50
374
ASUS44 KLIX 302110
RWRLIX
NEW ORLEANS REGIONAL WEATHER ROUNDUP
NATIONAL WEATHER SERVICE NEW ORLEANS LA
400 PM CDT THU OCT 30 2014

NOTE: "FAIR" INDICATES FEW OR NO CLOUDS BELOW 12,000 FEET WITH NO
      SIGNIFICANT WEATHER AND/OR OBSTRUCTIONS TO VISIBILITY.
      SKY/WX - SKY CONDITION AND SIGNIFICANT WEATHER.
      TMP - AIR TEMPERATURE.     DP    - DEWPOINT TEMPERATURE.
      RH  - RELATIVE HUMIDITY.   PRES  - PRESSURE.
      HI  - HEAT INDEX.          WCI   - WIND CHILL INDEX.

*  THESE STATIONS ARE NOT NWS OR FAA STATIONS AND ARE NOT UNDER
   NWS QUALITY CONTROL.

LAZ038-040-048-061>063-065>067-069-302200-
SOUTHEAST LOUISIANA

CITY           SKY/WX    TMP DP  RH WIND       PRES   REMARKS
N.O. AUDUBON     N/A     73 N/A N/A MISG        N/A
N.O. INTL ARPT MOSUNNY   73  40  30 NE8       30.03F
N.O. LAKEFRONT SUNNY     72  43  35 W6        30.03F
N.O. DOWNTOWN*   N/A     73  41  31 N7        30.03F
SLIDELL        SUNNY     75  39  27 N8        30.02S
BATON ROUGE    SUNNY     74  40  29 CALM      30.04F
BOOTHVILLE     SUNNY     71  51  49 NE9       30.02F
BELLE CHASSE   SUNNY     75  41  29 N6        30.02F
BOGALUSA*        N/A     75  33  21 NE10      30.04F
NEW ROADS*       N/A     73  42  32 CALM      30.05S
GONZALES*        N/A     74  43  32 NW5       30.03F
HAMMOND*       SUNNY     75  32  20 N6        30.05S
HOUMA*         SUNNY     75  45  33 N8        30.02F
PORT FOURCHON* CLEAR     73  52  46 NE10      30.05S

$$

MSZ070-080>082-302200-
SOUTHERN MISSISSIPPI

CITY           SKY/WX    TMP DP  RH WIND       PRES   REMARKS
MCCOMB         SUNNY     74  34  23 N7        30.04F
GULFPORT       SUNNY     74  37  26 NE13      30.00F
BILOXI         SUNNY     73  38  27 N8        30.00F
PASCAGOULA     SUNNY     73  37  27 N9        30.00F
STENNIS ARPT*  SUNNY     73  28  19 N7        30.02F

$$

COASTAL OBSERVATIONS
LAKE AND NEARSHORE STATIONS

STATION/POSITION TIME  TEMP    WIND        PRES    WAVE
                       AIR SEA DIR/SP/G            HT/PER
                 (UTC) (F)     (DEG/KT/KT) (MB)    (FT/S)
PASCAGOULA       2100   73     350/ 10/ 14 1015.4
WAVELAND YACHT   2100   72      30/  9/ 12 1015.4
GRAND ISLE       2100   72 76   50/  8/ 12 1016.9
SOUTHWEST PASS   2100   83 78              1016.6
NEW CANAL        2100      71  310/  2/  4 1017.3
SHELL BEACH      2100   69 69   30/  4/  5 1016.4

OFFSHORE STATIONS

STATION/POSITION TIME  TEMP    WIND        PRES    WAVE
                       AIR SEA DIR/SP/G            HT/PER
                 (UTC) (F)     (DEG/KT/KT) (MB)    (FT/S)
64 S DAUPHIN ISL 2004   69 78   10/ 12/ 16 1016.2    4/ 6

$$




USA.gov is the U.S. government's official web portal to all federal, state and local government web resources and services.